WGS F6 (USA 244)

Last updated on Fri Oct 31 2025 00:02:47 GMT+0000 (Coordinated Universal Time)

1 39222U 13041A 25302.94367848 .00000000 00000+0 00000+0 0 9996 2 39222 0.0112 235.9176 0000445 348.1885 18.9498 1.00271276 43751
UTC large
Height (km)
Speed (km/s)
/
Latitude / Longitude
Inclination (degrees)
Orbital Period (minutes)
Azimuth
Elevation
Range (km)
Doppler Factor

Next 0 passes for location: London (51.5072 / 0.1276)

Sorry there are no passes over London.